Stündliche Wetter Labusz

Heute, 18 Mai, Dienstag

Zeit Temperatur Niederschläge Wind Luftdruck Luftfeuchtigkeit
00:00 +10°C° 0 mm 0 m/S 753 mmHg 88%
01:00 +10°C° 0 mm 0 m/S 753 mmHg 89%
02:00 +10°C° 0 mm 0 m/S 753 mmHg 90%
03:00 +10°C° 0 mm 0 m/S 753 mmHg 90%
04:00 +10°C° 0 mm 1 m/S 754 mmHg 90%
05:00 +11°C° 0 mm 1 m/S 754 mmHg 88%
06:00 +12°C° 0 mm 1 m/S 754 mmHg 85%
07:00 +13°C° 0 mm 1 m/S 754 mmHg 82%
08:00 +14°C° 0 mm 1 m/S 755 mmHg 79%
09:00 +14°C° 0 mm 2 m/S 755 mmHg 75%
10:00 +15°C° 0 mm 2 m/S 755 mmHg 72%
11:00 +15°C° 0.1 mm 2 m/S 755 mmHg 70%
12:00 +14°C° 0.1 mm 3 m/S 755 mmHg 69%
13:00 +14°C° 0.1 mm 3 m/S 756 mmHg 68%
14:00 +14°C° 0 mm 3 m/S 756 mmHg 68%
15:00 +14°C° 0 mm 3 m/S 756 mmHg 68%
16:00 +14°C° 0 mm 4 m/S 756 mmHg 67%
17:00 +13°C° 0 mm 3 m/S 756 mmHg 72%
18:00 +12°C° 0 mm 3 m/S 757 mmHg 77%
19:00 +11°C° 0 mm 3 m/S 757 mmHg 83%
20:00 +10°C° 0 mm 3 m/S 757 mmHg 86%
21:00 +9°C° 0 mm 3 m/S 757 mmHg 89%
22:00 +8°C° 0 mm 3 m/S 757 mmHg 93%
23:00 +8°C° 0 mm 3 m/S 757 mmHg 93%

Morgen, 19 Mai, Mittwoch

Zeit Temperatur Niederschläge Wind Luftdruck Luftfeuchtigkeit
00:00 +8°C° 0 mm 3 m/S 757 mmHg 93%
01:00 +8°C° 0 mm 3 m/S 757 mmHg 92%
02:00 +8°C° 0 mm 3 m/S 757 mmHg 93%
03:00 +7°C° 0 mm 3 m/S 757 mmHg 94%
04:00 +6°C° 0 mm 4 m/S 757 mmHg 95%
05:00 +8°C° 0 mm 4 m/S 757 mmHg 91%
06:00 +10°C° 0 mm 4 m/S 758 mmHg 86%
07:00 +11°C° 0 mm 4 m/S 758 mmHg 82%
08:00 +11°C° 0 mm 4 m/S 758 mmHg 77%
09:00 +12°C° 0 mm 5 m/S 758 mmHg 73%
10:00 +13°C° 0 mm 5 m/S 758 mmHg 68%
11:00 +13°C° 0 mm 5 m/S 759 mmHg 66%
12:00 +13°C° 0 mm 5 m/S 759 mmHg 64%
13:00 +13°C° 0 mm 5 m/S 759 mmHg 62%
14:00 +13°C° 0 mm 5 m/S 759 mmHg 62%
15:00 +12°C° 0 mm 5 m/S 759 mmHg 63%
16:00 +12°C° 0 mm 5 m/S 759 mmHg 63%
17:00 +11°C° 0 mm 4 m/S 759 mmHg 69%
18:00 +11°C° 0 mm 4 m/S 759 mmHg 74%
19:00 +10°C° 0 mm 4 m/S 759 mmHg 79%
20:00 +9°C° 0 mm 3 m/S 759 mmHg 83%
21:00 +8°C° 0 mm 3 m/S 760 mmHg 86%
22:00 +7°C° 0 mm 3 m/S 760 mmHg 90%
23:00 +7°C° 0 mm 3 m/S 760 mmHg 90%

übermorgen, 20 Mai, Donnerstag

Zeit Temperatur Niederschläge Wind Luftdruck Luftfeuchtigkeit
00:00 +7°C° 0 mm 3 m/S 760 mmHg 91%
01:00 +5°C° 0 mm 3 m/S 760 mmHg 91%
02:00 +5°C° 0 mm 3 m/S 760 mmHg 92%
03:00 +5°C° 0 mm 3 m/S 760 mmHg 93%
04:00 +5°C° 0 mm 4 m/S 760 mmHg 94%
05:00 +7°C° 0 mm 4 m/S 761 mmHg 88%
06:00 +8°C° 0 mm 4 m/S 761 mmHg 83%
07:00 +11°C° 0 mm 4 m/S 761 mmHg 78%
08:00 +12°C° 0 mm 5 m/S 761 mmHg 75%
09:00 +12°C° 0 mm 5 m/S 761 mmHg 72%
10:00 +13°C° 0 mm 6 m/S 762 mmHg 69%
11:00 +13°C° 0 mm 6 m/S 762 mmHg 68%
12:00 +13°C° 0 mm 6 m/S 762 mmHg 67%
13:00 +13°C° 0 mm 6 m/S 762 mmHg 66%
14:00 +11°C° 0 mm 6 m/S 762 mmHg 66%
15:00 +11°C° 0 mm 6 m/S 762 mmHg 65%
16:00 +11°C° 0 mm 6 m/S 762 mmHg 65%
17:00 +10°C° 0 mm 6 m/S 762 mmHg 67%
18:00 +9°C° 0 mm 5 m/S 762 mmHg 70%
19:00 +9°C° 0 mm 5 m/S 762 mmHg 72%
20:00 +8°C° 0 mm 5 m/S 762 mmHg 76%
21:00 +7°C° 0 mm 4 m/S 762 mmHg 80%
22:00 +6°C° 0 mm 4 m/S 762 mmHg 84%
23:00 +6°C° 0 mm 4 m/S 762 mmHg 87%

21 Mai, Freitag

Zeit Temperatur Niederschläge Wind Luftdruck Luftfeuchtigkeit
00:00 +6°C° 0 mm 4 m/S 762 mmHg 90%
01:00 +5°C° 0 mm 4 m/S 762 mmHg 93%
02:00 +5°C° 0 mm 4 m/S 761 mmHg 92%
03:00 +5°C° 0 mm 4 m/S 761 mmHg 92%
04:00 +5°C° 0 mm 4 m/S 761 mmHg 92%
05:00 +7°C° 0.1 mm 4 m/S 761 mmHg 88%
06:00 +8°C° 0.1 mm 5 m/S 760 mmHg 85%
07:00 +9°C° 0.1 mm 5 m/S 760 mmHg 81%
08:00 +12°C° 0 mm 5 m/S 759 mmHg 75%
09:00 +13°C° 0 mm 5 m/S 759 mmHg 68%
10:00 +15°C° 0 mm 5 m/S 758 mmHg 62%
11:00 +15°C° 0.1 mm 5 m/S 758 mmHg 62%
12:00 +15°C° 0.1 mm 5 m/S 758 mmHg 63%
13:00 +15°C° 0.1 mm 5 m/S 757 mmHg 63%
14:00 +15°C° 0.2 mm 6 m/S 757 mmHg 65%
15:00 +15°C° 0.2 mm 6 m/S 757 mmHg 67%
16:00 +14°C° 0.2 mm 6 m/S 756 mmHg 69%
17:00 +13°C° 1.1 mm 5 m/S 756 mmHg 78%
18:00 +11°C° 1.1 mm 4 m/S 756 mmHg 87%
19:00 +10°C° 1.1 mm 3 m/S 755 mmHg 96%
20:00 +10°C° 0.6 mm 3 m/S 755 mmHg 95%
21:00 +10°C° 0.6 mm 4 m/S 754 mmHg 95%
22:00 +10°C° 0.6 mm 4 m/S 754 mmHg 95%
23:00 +10°C° 0 mm 4 m/S 754 mmHg 95%

22 Mai, Samstag

Zeit Temperatur Niederschläge Wind Luftdruck Luftfeuchtigkeit
00:00 +9°C° 0 mm 5 m/S 753 mmHg 95%
01:00 +9°C° 0 mm 5 m/S 753 mmHg 95%
02:00 +9°C° 0.1 mm 5 m/S 753 mmHg 96%
03:00 +9°C° 0.1 mm 5 m/S 752 mmHg 96%
04:00 +8°C° 0.1 mm 5 m/S 752 mmHg 96%
05:00 +9°C° 0.5 mm 5 m/S 752 mmHg 96%
06:00 +10°C° 0.5 mm 4 m/S 752 mmHg 96%
07:00 +11°C° 0.5 mm 4 m/S 752 mmHg 96%
08:00 +11°C° 0.8 mm 4 m/S 752 mmHg 95%
09:00 +11°C° 0.8 mm 4 m/S 751 mmHg 95%
10:00 +11°C° 0.8 mm 4 m/S 751 mmHg 95%
11:00 +12°C° 0.3 mm 4 m/S 751 mmHg 92%
12:00 +12°C° 0.3 mm 4 m/S 752 mmHg 89%
13:00 +12°C° 0.3 mm 4 m/S 752 mmHg 87%
14:00 +13°C° 0.4 mm 4 m/S 752 mmHg 86%
15:00 +13°C° 0.4 mm 4 m/S 752 mmHg 86%
16:00 +13°C° 0.4 mm 4 m/S 752 mmHg 86%
17:00 +12°C° 0.4 mm 4 m/S 752 mmHg 87%
18:00 +12°C° 0.4 mm 3 m/S 752 mmHg 88%
19:00 +11°C° 0.4 mm 3 m/S 752 mmHg 89%
20:00 +10°C° 0 mm 3 m/S 752 mmHg 90%
21:00 +9°C° 0 mm 3 m/S 752 mmHg 92%
22:00 +7°C° 0 mm 4 m/S 752 mmHg 94%
23:00 +7°C° 0 mm 4 m/S 752 mmHg 93%

23 Mai, Sonntag

Zeit Temperatur Niederschläge Wind Luftdruck Luftfeuchtigkeit
00:00 +7°C° 0 mm 5 m/S 752 mmHg 93%
01:00 +7°C° 0 mm 5 m/S 752 mmHg 93%
02:00 +7°C° 0 mm 6 m/S 753 mmHg 93%
03:00 +7°C° 0 mm 6 m/S 753 mmHg 93%
04:00 +8°C° 0 mm 7 m/S 753 mmHg 93%
05:00 +8°C° 0 mm 7 m/S 753 mmHg 90%
06:00 +8°C° 0 mm 7 m/S 754 mmHg 88%
07:00 +9°C° 0 mm 8 m/S 754 mmHg 85%
08:00 +10°C° 0.1 mm 8 m/S 754 mmHg 78%
09:00 +11°C° 0.1 mm 8 m/S 754 mmHg 72%
10:00 +12°C° 0.1 mm 8 m/S 755 mmHg 65%
11:00 +12°C° 0.2 mm 8 m/S 755 mmHg 67%
12:00 +11°C° 0.2 mm 8 m/S 755 mmHg 68%
13:00 +11°C° 0.2 mm 7 m/S 756 mmHg 70%
14:00 +11°C° 0.1 mm 8 m/S 756 mmHg 68%
15:00 +12°C° 0.1 mm 8 m/S 756 mmHg 66%
16:00 +12°C° 0.1 mm 8 m/S 757 mmHg 64%
17:00 +11°C° 0 mm 7 m/S 757 mmHg 69%
18:00 +10°C° 0 mm 6 m/S 757 mmHg 74%
19:00 +9°C° 0 mm 5 m/S 757 mmHg 79%
20:00 +8°C° 0.1 mm 5 m/S 758 mmHg 83%
21:00 +7°C° 0.1 mm 5 m/S 758 mmHg 86%
22:00 +6°C° 0.1 mm 4 m/S 758 mmHg 90%
23:00 +7°C° 0 mm 5 m/S 758 mmHg 89%
Mehr zeigen

Wir brauchen deine Erlaubnis

Meteoprog und unser Service Anbieter werden persönliche Daten aufbewahren, so wie Cookies, Geräte Bezeichnung oder ähnliche Technologien von deinem Gerät und Prozess, so wie Persönliche Daten Inhalte und Werbungen, genauso wie social Media und den Verkehr zu analysieren.

  • Aufbewahrung und/oder Zugang zu deiner Geräte Informationen.

    Cookies, Geräte Bezeichnung oder andere Informationen, können aufbewahrt oder Zugang zu deinem Gerät erhalten, für den Grund, der oben angegeben wird.

  • Personalisierte Werbung und Inhalte, Messungen, Einblick in das Publikum und Produkt Entwicklung.

    Werbungen und Inhalte können personalisiert werden, basierend auf ein Profil. Mehr Daten können besser personalisierte Werbungen und Inhalte hinzufügen. Werbung und Inhalte können gezeigt und gemessen werden. Einblicke über das Publikum, welche die Werbung gesehen haben und den Inhalt, können abgeleitet werden. So wie Daten können genutzt werden, um es zu verbessern oder die Benutzer Erfahrung zu verbessern das System und die Software.

Wenn du “Ich stimme zu” klickst, erlaubst du uns, die Cookies zu benutzen die Geräte Bezeichnung, den Web oder ähnliche Technologien zu benutzen. Deine Settings, können in deinem Gerät bei deinem Browser geändert werden.

Für den bestimmten Zweck, berechtigten Interessen beruhen darauf, mehr als auf den Inhalt. Du kannst mehr darüber in unseren Privaten und Cookie Politik lesen.